Big Rapids, MI

12:07 AM EDT on March 30, 2017 (GMT -0400)
Roben-Hood

Weather History for KRQB - March, 2012

Change the Weather History Date:

Thursday, March 15, 2012

  Actual Average Record
Temperature  
Mean Temperature 64 °F -  
Max Temperature 75 °F 41 °F 76 °F (1990)
Min Temperature 52 °F 20 °F 0 °F (1998)
Degree Days  
Heating Degree Days 2    
Growing Degree Days 14 (Base 50)    
Moisture  
Dew Point 57 °F    
Average Humidity 82    
Maximum Humidity 100    
Minimum Humidity 62    
Precipitation  
Precipitation 0.00 in - - ()
Sea Level Pressure  
Sea Level Pressure 29.95 in    
Wind  
Wind Speed 3 mph (SSW)    
Max Wind Speed 15 mph    
Max Gust Speed 20 mph    
Visibility 8 miles    
Events      
Averages and records for this station are not official NWS values.
T = Trace of Precipitation, MM = Missing Value Source: NWS Daily Summary

Daily Weather History Graph

Daily Weather History Graph

Search for Another Location

Airport or City:

Trip Planner

Search our weather history database for the weather conditions in past years. The results will help you decide how hot, cold, wet, or windy it might be!

Date:

Astronomy

Mar. 15, 2012 Rise Set
Actual Time 7:53 AM EDT 7:48 PM EDT
Civil Twilight 7:24 AM EDT 8:17 PM EDT
Nautical Twilight 6:51 AM EDT 8:50 PM EDT
Astronomical Twilight 6:17 AM EDT 9:25 PM EDT
Moon 3:31 AM EDT (3/15) 12:54 PM EDT (3/15)
Length of Visible Light 12h 52m
Length of Day
11h 55m
Last Quarter, 43% of the Moon is Illuminated
Mar 15
Last Quarter
Mar 22
New
Mar 30
First Quarter
Apr 6
Full
Apr 13
Last Quarter

Hourly Weather History & Observations

Time (EDT) Temp. Dew Point Humidity Pressure Visibility Wind Dir Wind Speed Gust Speed Precip Events Conditions
12:14 AM 64.9 °F 52.9 °F 65% 29.96 in 10.0 mi Calm Calm - N/A   Scattered Clouds
12:33 AM 64.0 °F 52.7 °F 67% 29.96 in 10.0 mi South 3.5 mph - N/A   Scattered Clouds
12:54 AM 61.9 °F 52.0 °F 70% 29.95 in 10.0 mi SSE 3.5 mph - N/A   Scattered Clouds
1:14 AM 58.3 °F 50.9 °F 76% 29.95 in 10.0 mi SSE 3.5 mph - N/A   Scattered Clouds
1:34 AM 57.4 °F 50.7 °F 78% 29.94 in 10.0 mi SE 4.6 mph - N/A   Scattered Clouds
1:54 AM 56.3 °F 50.5 °F 81% 29.94 in 10.0 mi SE 4.6 mph - N/A   Scattered Clouds
2:14 AM 56.1 °F 50.9 °F 83% 29.93 in 10.0 mi SE 3.5 mph - N/A   Scattered Clouds
2:34 AM 56.1 °F 50.9 °F 83% 29.93 in 10.0 mi SSE 3.5 mph - N/A   Mostly Cloudy
2:54 AM 56.7 °F 51.3 °F 82% 29.93 in 10.0 mi SSE 3.5 mph - N/A   Overcast
3:14 AM 58.5 °F 52.7 °F 81% 29.94 in 10.0 mi South 3.5 mph - N/A   Overcast
3:34 AM 60.6 °F 55.0 °F 82% 29.94 in 10.0 mi SSW 4.6 mph - N/A   Scattered Clouds
3:54 AM 60.8 °F 55.6 °F 83% 29.93 in 10.0 mi Calm Calm - N/A   Clear
4:14 AM 59.2 °F 55.2 °F 87% 29.93 in 10.0 mi South 4.6 mph - N/A   Clear
4:33 AM 59.4 °F 55.6 °F 87% 29.93 in 10.0 mi SSW 3.5 mph - N/A   Clear
4:54 AM 58.5 °F 55.6 °F 90% 29.93 in 10.0 mi SSW 6.9 mph - N/A   Clear
5:14 AM 59.4 °F 57.2 °F 93% 29.93 in 10.0 mi SW 3.5 mph - N/A   Clear
5:35 AM 53.8 °F 53.4 °F 99% 29.93 in 7.0 mi Calm Calm - N/A   Clear
5:54 AM 53.2 °F 53.2 °F 100% 29.93 in 5.0 mi Calm Calm - N/A   Scattered Clouds
6:14 AM 53.1 °F 53.1 °F 100% 29.93 in 5.0 mi WSW 3.5 mph - N/A   Mostly Cloudy
6:34 AM 52.3 °F 52.3 °F 100% 29.93 in 5.0 mi Calm Calm - N/A   Overcast
6:54 AM 53.6 °F 53.6 °F 100% 29.93 in 5.0 mi Calm Calm - N/A   Overcast
7:14 AM 52.7 °F 52.7 °F 100% 29.95 in 7.0 mi Calm Calm - N/A   Overcast
7:34 AM 53.4 °F 53.4 °F 100% 29.96 in 7.0 mi ESE 3.5 mph - N/A   Overcast
7:54 AM 53.8 °F 53.8 °F 100% 29.96 in 5.0 mi Calm Calm - N/A   Overcast
8:14 AM 54.1 °F 54.1 °F 100% 29.97 in 5.0 mi ESE 3.5 mph - N/A   Overcast
8:34 AM 54.3 °F 54.3 °F 100% 29.97 in 5.0 mi Calm Calm - N/A   Overcast
8:54 AM 53.8 °F 53.8 °F 100% 29.97 in 4.0 mi SSW 9.2 mph - N/A   Scattered Clouds
9:14 AM 56.7 °F 56.7 °F 100% 29.97 in 5.0 mi Calm Calm - N/A   Clear
9:34 AM 59.2 °F 58.6 °F 98% 29.97 in 5.0 mi Calm Calm - N/A   Clear
9:54 AM 62.1 °F 60.3 °F 94% 29.97 in 7.0 mi SW 4.6 mph - N/A   Scattered Clouds
10:14 AM 63.0 °F 60.6 °F 92% 29.97 in 7.0 mi SW 3.5 mph - N/A   Scattered Clouds
10:34 AM 63.7 °F 60.8 °F 90% 29.97 in 7.0 mi SW 3.5 mph - N/A   Scattered Clouds
10:54 AM 64.2 °F 60.8 °F 89% 29.98 in 7.0 mi Calm Calm - N/A   Overcast
11:13 AM 64.6 °F 60.8 °F 88% 29.98 in 7.0 mi West 4.6 mph - N/A   Overcast
11:34 AM 64.6 °F 60.6 °F 87% 29.98 in 7.0 mi Calm Calm - N/A   Mostly Cloudy
11:54 AM 65.7 °F 59.7 °F 81% 29.98 in 7.0 mi Calm Calm - N/A   Overcast
12:13 PM 66.9 °F 60.1 °F 79% 29.97 in 10.0 mi Calm Calm - N/A   Scattered Clouds
12:34 PM 69.1 °F 60.3 °F 73% 29.97 in 7.0 mi Calm Calm - N/A   Clear
12:54 PM 69.4 °F 59.4 °F 70% 29.97 in 10.0 mi Calm Calm - N/A   Clear
1:13 PM 72.0 °F 59.7 °F 65% 29.97 in 10.0 mi Calm Calm - N/A   Scattered Clouds
1:34 PM 70.9 °F 59.0 °F 66% 29.96 in 10.0 mi Calm Calm - N/A   Mostly Cloudy
1:54 PM 71.1 °F 59.9 °F 68% 29.96 in 10.0 mi Calm Calm - N/A   Mostly Cloudy
2:14 PM 71.8 °F 60.3 °F 67% 29.95 in 10.0 mi Calm Calm - N/A   Overcast
2:34 PM 73.0 °F 60.1 °F 64% 29.94 in 10.0 mi Calm Calm - N/A   Scattered Clouds
2:54 PM 73.9 °F 60.8 °F 63% 29.93 in 10.0 mi Calm Calm - N/A   Mostly Cloudy
3:13 PM 74.3 °F 60.6 °F 62% 29.93 in 10.0 mi West 5.8 mph - N/A   Overcast
3:34 PM 75.4 °F 61.5 °F 62% 29.93 in 10.0 mi West 6.9 mph - N/A   Overcast
3:54 PM 74.1 °F 60.6 °F 63% 29.93 in 10.0 mi SW 6.9 mph - N/A   Mostly Cloudy
4:14 PM 74.3 °F 61.9 °F 65% 29.93 in 10.0 mi SSW 15.0 mph 19.6 mph N/A   Overcast
4:34 PM 73.0 °F 61.7 °F 67% 29.93 in 10.0 mi SW 12.7 mph 16.1 mph N/A   Scattered Clouds
4:54 PM 73.2 °F 61.7 °F 67% 29.93 in 10.0 mi SW 11.5 mph 17.3 mph N/A   Scattered Clouds
5:13 PM 73.4 °F 61.7 °F 67% 29.92 in 10.0 mi SW 13.8 mph 17.3 mph N/A   Scattered Clouds
5:34 PM 72.9 °F 61.2 °F 67% 29.92 in 10.0 mi SW 11.5 mph 16.1 mph N/A   Scattered Clouds
5:54 PM 72.7 °F 61.5 °F 68% 29.92 in 10.0 mi SSW 12.7 mph 18.4 mph N/A   Scattered Clouds
6:14 PM 71.4 °F 61.2 °F 70% 29.93 in 10.0 mi SW 9.2 mph - N/A   Mostly Cloudy
6:34 PM 70.9 °F 61.2 °F 71% 29.93 in 10.0 mi WSW 9.2 mph - N/A   Overcast
6:54 PM 69.4 °F 61.0 °F 74% 29.93 in 10.0 mi SW 11.5 mph 17.3 mph N/A   Scattered Clouds
6:55 PM 69.3 °F 61.0 °F 75% 29.93 in 10.0 mi SW 10.4 mph 17.3 mph N/A   Scattered Clouds
7:34 PM 67.5 °F 60.6 °F 79% 29.96 in 10.0 mi WNW 11.5 mph 17.3 mph N/A   Mostly Cloudy
7:54 PM 65.1 °F 58.6 °F 79% 29.96 in 10.0 mi NW 10.4 mph - N/A   Scattered Clouds
8:14 PM 64.2 °F 58.1 °F 80% 29.97 in 10.0 mi North 9.2 mph - N/A   Scattered Clouds
8:34 PM 62.1 °F 57.4 °F 85% 29.98 in 10.0 mi WNW 5.8 mph - N/A   Mostly Cloudy
8:54 PM 61.0 °F 57.2 °F 87% 29.98 in 10.0 mi NW 6.9 mph - N/A   Mostly Cloudy
9:14 PM 61.5 °F 58.1 °F 89% 29.98 in 10.0 mi Calm Calm - N/A   Overcast
9:34 PM 62.1 °F 57.7 °F 86% 29.99 in 10.0 mi Calm Calm - N/A   Mostly Cloudy
9:54 PM 59.7 °F 56.1 °F 88% 29.99 in 10.0 mi Calm Calm - N/A   Scattered Clouds
10:14 PM 54.5 °F 54.0 °F 98% 30.00 in 5.0 mi Calm Calm - N/A   Clear
10:34 PM 53.8 °F 53.8 °F 100% 30.01 in 5.0 mi Calm Calm - N/A   Clear
10:54 PM 52.9 °F 52.9 °F 100% 30.00 in 4.0 mi WNW 3.5 mph - N/A   Clear
11:14 PM 51.1 °F 51.1 °F 100% 30.01 in 3.0 mi SW 3.5 mph - N/A   Clear
11:34 PM 51.1 °F 51.1 °F 100% 30.01 in 2.5 mi Calm Calm - N/A   Scattered Clouds
11:54 PM 52.5 °F 52.5 °F 100% 30.01 in 0.5 mi NW 3.5 mph - N/A Fog Fog